Location: Cleveland
(41.4990°N, 81.6960°W)
Time: 18:48:56
(UTC-04:00)

ISS - Pass Details

Date: 02 October 2021
Orbit: 417 x 423 km, 51.6° (Epoch: 18 October)

Event Time Altitude Azimuth Distance (km) Brightness Sun altitude
Rises 19:41:22 0° 309° (NW) 2,364 1.0 -7.4°
Reaches altitude 10° 19:43:41 10° 323° (NW) 1,499 -0.4 -7.8°
Maximum altitude 19:46:35 26° 22° (NNE) 862 -2.4 -8.4°
Enters shadow 19:49:10 12° 79° (ENE) 1,393 -1.7 -8.9°
